TimeCST,TemperatureF,Dew PointF,Humidity,Sea Level PressureIn,VisibilityMPH,Wind Direction,Wind SpeedMPH,Gust SpeedMPH,PrecipitationIn,Events,Conditions,WindDirDegrees,DateUTC
12:53 AM,33.1,26.1,75,29.83,10.0,SSW,4.6,-,N/A,,Clear,200,2013-12-02 06:53:00
1:53 AM,36.0,27.0,70,29.80,10.0,West,5.8,-,N/A,,Clear,270,2013-12-02 07:53:00
2:53 AM,39.0,27.0,62,29.78,10.0,West,10.4,-,N/A,,Clear,270,2013-12-02 08:53:00
3:53 AM,39.0,26.1,60,29.77,10.0,West,10.4,-,N/A,,Clear,270,2013-12-02 09:53:00
4:53 AM,37.0,26.1,65,29.77,10.0,West,8.1,-,N/A,,Clear,270,2013-12-02 10:53:00
5:53 AM,39.9,27.0,60,29.78,10.0,NW,8.1,-,N/A,,Clear,310,2013-12-02 11:53:00
6:53 AM,42.1,27.0,55,29.80,10.0,NW,11.5,-,N/A,,Clear,320,2013-12-02 12:53:00
7:53 AM,45.0,27.0,49,29.79,10.0,NW,10.4,-,N/A,,Clear,310,2013-12-02 13:53:00
8:53 AM,46.0,28.9,51,29.79,10.0,WNW,9.2,-,N/A,,Clear,290,2013-12-02 14:53:00
9:53 AM,51.1,30.9,46,29.79,10.0,West,4.6,-,N/A,,Clear,280,2013-12-02 15:53:00
10:53 AM,59.0,30.9,35,29.77,10.0,West,10.4,-,N/A,,Clear,270,2013-12-02 16:53:00
11:53 AM,63.0,30.0,29,29.73,10.0,West,5.8,-,N/A,,Clear,270,2013-12-02 17:53:00
12:53 PM,64.9,27.0,24,29.69,10.0,Variable,4.6,-,N/A,,Clear,0,2013-12-02 18:53:00
1:53 PM,64.9,27.0,24,29.65,10.0,South,5.8,-,N/A,,Clear,190,2013-12-02 19:53:00
2:53 PM,66.0,27.0,23,29.60,10.0,South,10.4,-,N/A,,Clear,180,2013-12-02 20:53:00
3:53 PM,64.0,28.9,27,29.62,10.0,South,8.1,-,N/A,,Clear,170,2013-12-02 21:53:00
4:53 PM,62.1,30.9,31,29.62,10.0,South,9.2,-,N/A,,Clear,170,2013-12-02 22:53:00
5:53 PM,55.0,33.1,43,29.62,10.0,SSE,10.4,-,N/A,,Clear,160,2013-12-02 23:53:00
6:53 PM,53.1,30.9,43,29.60,10.0,South,10.4,-,N/A,,Clear,180,2013-12-03 00:53:00
7:53 PM,52.0,30.9,45,29.58,10.0,South,11.5,-,N/A,,Clear,190,2013-12-03 01:53:00
8:53 PM,50.0,30.0,46,29.58,10.0,South,11.5,-,N/A,,Clear,180,2013-12-03 02:53:00
9:53 PM,48.9,30.0,48,29.56,10.0,South,11.5,-,N/A,,Clear,190,2013-12-03 03:53:00
10:53 PM,45.0,30.0,56,29.54,10.0,South,11.5,-,N/A,,Clear,190,2013-12-03 04:53:00
11:53 PM,41.0,30.0,65,29.52,10.0,SSW,6.9,-,N/A,,Clear,210,2013-12-03 05:53:00